www.pogodaiklimat.ru

Погода и климат >> Архив погоды >> Германия >> Гамбург


АРХИВ ПОГОДЫ в Гамбурге

Время (UTC), дата Ветер
(напр.,м/с)
 
Видим.   Явления Облачность Т
(С)
Тd
(С)
f
(%)
Тe
(С)
Тes
(С)
Комфортность P
(гПа)
Po
(гПа)
Тmin
(С)
Tmax
(С)
R
(мм)
R24
(мм)
S
(см)
19 10.06 СВ 6 30 км в посл. час ливневой дождь 9/6 700 м
[Cu Sc Ac As]
+17.8 +14.4 80 +17 +17 тепло 1011.8 1010.0
20 10.06 СВ 6 25 км 10/5 700 м
[Cu Sc Ac As]
+17.2 +14.4 84 +16 +16 тепло 1011.3 1009.5
21 10.06 СВ 7 25 км {ливн. осадки} 10/1 300 м
[St Ac As]
+16.5 +14.0 85 +15 +15 по сезону 1011.2 1009.4 0.0
22 10.06 СВ 5 15 км слаб. ливневой дождь 10/9 270 м
[Cu Sc]
+15.9 +13.9 88 +15 +15 тепло 1011.2 1009.4
23 10.06 С 3 5000 м слаб. ливневой дождь 10/9 180 м
[Cb calv]
+15.1 +14.0 93 +14 +14 тепло 1011.0 1009.2
00 11.06 СВ 3 8000 м в посл. час ливневой дождь 10/9 100 м
[Sc]
+15.0 +14.0 94 +14 +14 тепло 1010.8 1009.0 1
01 11.06 СВ 2 8000 м в посл. час ливневой дождь 10/9 180 м
[St]
+14.7 +13.8 94 +14 +14 тепло 1010.7 1008.9
02 11.06 СВ 2 9000 м 10/9 180 м
[Sc]
+14.9 +14.0 94 +15 +15 тепло 1010.2 1008.4
03 11.06 СВ 3 9000 м {ливн. осадки} 10/9 180 м
[St]
+14.6 +13.4 93 +14 +14 тепло 1009.5 1007.7 1
04 11.06 СВ 4 9000 м 10/9 180 м
[St]
+14.5 +13.3 93 +13 +13 тепло 1009.5 1007.7
05 11.06 СВ 4 9000 м 10/9 150 м
[St]
+14.7 +13.5 93 +13 +13 по сезону 1009.3 1007.5
06 11.06 В 3 9000 м слаб. дождь 10/9 100 м
[St]
+15.2 +13.6 90 +14 +15 по сезону 1009.8 1008.0 +14.4 +18.7 3
07 11.06 СВ 2 7000 м в посл. час дождь 10/10 120 м
[St]
+15.4 +14.1 92 +15 +15 по сезону 1009.8 1008.0
08 11.06 ЮЗ 2 6000 м слаб. дождь 10/9 120 м
[Frnb]
+15.7 +14.7 94 +16 +16 по сезону 1010.2 1008.4
09 11.06 С 3 4500 м слаб. дождь 10/6 100 м
[Frnb As op]
+16.1 +15.2 94 +16 +17 по сезону 1010.0 1008.2 4
10 11.06 З 2 6000 м в посл. час дождь 10/9 150 м
[St]
+16.7 +15.3 91 +17 +18 по сезону 1010.2 1008.4
11 11.06 ЮЗ 2 12 км 10/10 150 м
[Cu Sc]
+17.7 +15.7 88 +18 +18 по сезону 1010.7 1008.9
12 11.06 ЮЗ 2 25 км {дождь} 9/9 270 м
[Cu Sc]
+19.5 +16.1 81 +22 +24 комфорт 1011.1 1009.3 0.0
13 11.06 З 2 30 км 9/9 450 м
[Cu Sc]
+19.5 +16.1 81 +22 +24 комфорт 1011.4 1009.6
14 11.06 ЮЗ 3 30 км 4/4 660 м
[Cu med, cong Ci fib]
+21.6 +15.9 70 +25 +31 комфорт 1011.2 1009.5
15 11.06 ЮЗ 4 40 км 4/4 720 м
[Cu med, cong Ci fib]
+22.0 +15.8 68 +26 +29 душно 1011.2 1009.5
16 11.06 З 3 35 км 4/3 750 м
[Cu med, cong Ci fib]
+21.4 +15.3 68 +25 +28 комфорт 1011.3 1009.6
17 11.06 З 3 30 км 4/3 840 м
[Cu med, cong Ci fib]
+22.0 +14.7 63 +25 +27 комфорт 1011.4 1009.7
18 11.06 СЗ 3 30 км 6/4 600 м
[Cu Sc Ci fib]
+21.1 +15.5 70 +24 +25 комфорт 1011.9 1010.2 +15.2 +22.4 4
19 11.06 С 2 30 км 8/3 840 м
[Cu med, cong Ci sp]
+20.0 +15.7 76 +23 +23 комфорт 1012.4 1010.6
20 11.06 СЗ 3 25 км 4/0
[Ac trans Ci fib]
+18.7 +15.5 82 +20 +20 тепло 1012.3 1010.5
21 11.06 СЗ 3 20 км 6/0
[Ac trans Ci sp]
+17.7 +15.4 86 +18 +18 тепло 1013.0 1011.2
22 11.06 С 3 15 км 8/0
[Ac trans Ci sp]
+16.8 +14.7 87 +17 +17 тепло 1011.8 1010.0
23 11.06 С 4 10 км в посл. час ливневой дождь 9/3 330 м
[Cb cap Ac As]
+16.8 +14.8 88 +16 +16 тепло 1011.3 1009.5
00 12.06 В 1 3200 м н/о +16.5 +15.1 91 +17 +17 тепло 1013.9 1012.1 1
01 12.06 СВ 6 3000 м гроза, ливневой дождь 10/9 300 м
[Cb cap]
+16.6 +15.7 94 +15 +15 тепло 1012.0 1010.2
02 12.06 СВ 8 15 км слаб. ливневой дождь, в посл. час гроза 10/4 150 м
[Cb cap Ac As]
+16.6 +15.5 93 +15 +15 тепло 1008.7 1006.9
03 12.06 З 4 15 км в посл. час ливневой дождь {гроза} 10/3 270 м
[Cu hum Ac As]
+16.2 +15.3 94 +15 +15 тепло 1008.7 1006.9 6
04 12.06 З 4 3500 м местами туман поземный 10/10 90 м
[St]
+15.6 +15.0 96 +15 +15 тепло 1009.4 1007.6
05 12.06 С 4 4800 м дымка 10/9 90 м
[St]
+15.4 +14.6 95 +14 +14 тепло 1010.1 1008.3
06 12.06 С 3 4900 м дымка {гроза, ливн. осадки} 9/9 100 м
[St]
+15.9 +14.9 94 +15 +16 тепло 1009.5 1007.7 +15.3 +21.1 7
07 12.06 С 3 7000 м дымка 9/9 120 м
[St]
+16.7 +15.4 92 +16 +17 тепло 1010.3 1008.5
08 12.06 С 3 9000 м 9/9 180 м
[St]
+17.4 +15.6 89 +17 +18 тепло 1010.1 1008.3
09 12.06 СВ 3 16 км 9/9 300 м
[Sc]
+18.3 +15.6 84 +19 +20 тепло 1009.8 1008.0
10 12.06 СВ 3-5
{7}
28 км 9/9 270 м
[Sc]
+18.4 +15.4 83 +19 +20 по сезону 1009.4 1007.6
11 12.06 СВ 4 30 км 9/9 270 м
[Sc]
+18.6 +15.6 83 +19 +20 по сезону 1008.7 1006.9
12 12.06 В 3 30 км 9/9 300 м
[Sc]
+19.6 +15.9 79 +22 +23 комфорт 1007.9 1006.2
13 12.06 ЮВ 3 11 км гроза, ливневой дождь 9/9 360 м
[Cb cap]
+20.1 +16.3 79 +23 +24 комфорт 1007.7 1006.0
14 12.06 ЮЗ 2 9000 м гроза, ливневой дождь 9/9 270 м
[Cb cap]
+19.4 +17.7 90 +22 +23 комфорт 1007.7 1006.0
15 12.06 ЮЗ 3 11 км в посл. час гроза {ливн. осадки} 9/9 240 м
[Cb cap]
+19.0 +17.4 90 +21 +21 комфорт 1008.1 1006.3 2
16 12.06 ЮЗ 4 9000 м слаб. морось {дождь} 9/9 210 м
[Cu Sc]
+18.3 +17.2 93 +19 +19 тепло 1008.4 1006.6
17 12.06 СВ 2 13 км в посл. час морось 9/3 240 м
[Frnb Ac As]
+18.7 +17.0 90 +20 +21 тепло 1007.3 1005.5
18 12.06 ЮЗ 3 10 км {гроза, ливн. осадки} 9/4 200 м
[Cu med, cong Ac As]
+18.4 +17.3 93 +19 +19 тепло 1007.8 1006.0 +15.9 +20.6 3
19 12.06 Ю 4 15 км в посл. час ливневой дождь 6/4 360 м
[Cu Sc Ac trans Ci fib]
+18.4 +16.5 89 +19 +19 тепло 1009.1 1007.3
20 12.06 ЮЗ 5 30 км 6/5 360 м
[Cu Sc Ci fib]
+15.9 +14.1 89 +15 +15 тепло 1009.8 1008.0
21 12.06 ЮЗ 4 30 км {ливн. осадки} 4/3 1110 м
[Sc Ci fib]
+14.8 +13.1 90 +14 +14 по сезону 1010.3 1008.5 0.0
22 12.06 ЮЗ 2 25 км 1/1 1110 м
[Sc]
+13.9 +12.6 92 +13 +13 тепло 1010.7 1008.9
23 12.06 ЮЗ 3-5
{5}
25 км ясно +14.0 +12.4 90 +13 +13 тепло 1010.6 1008.8
00 13.06 ЮЗ 3 30 км {ливн. осадки} 1/0
[Ac trans]
+12.9 +11.8 93 +11 +11 по сезону 1011.2 1009.4
01 13.06 ЮЗ 2 25 км 4/0
[Ac trans Ci fib]
+12.7 +11.7 94 +12 +12 тепло 1011.4 1009.6
02 13.06 Ю 2 20 км 8/0
[Ac As Ci sp]
+13.7 +12.4 92 +13 +13 тепло 1011.3 1009.5
03 13.06 Ю 3 12 км туман на расстоянии 5/0
[Ac trans Ci sp]
+13.2 +11.9 92 +12 +12 по сезону 1011.5 1009.7
04 13.06 Ю 4 20 км 6/0
[Ac As Ci sp]
+13.8 +11.8 88 +12 +12 по сезону 1011.9 1010.1
05 13.06 Ю 4 30 км 9/0
[Ac As]
+14.0 +11.6 85 +13 +13 по сезону 1012.1 1010.3
06 13.06 Ю 3 45 км 5/0
[Ac As]
+16.0 +11.9 77 +16 +18 тепло 1012.3 1010.5 +12.1 +18.6 0.0
07 13.06 ЮВ 4 45 км 9/0
[Ac As Ci sp]
+18.1 +11.7 66 +18 +20 тепло 1012.5 1010.7
08 13.06 Ю 4 45 км 3/0
[Ac trans Ci fib]
+19.2 +11.3 60 +20 +26 тепло 1012.6 1010.8
09 13.06 Ю 5 50 км 3/3 1000 м
[Cu med, cong]
+20.7 +11.9 57 +23 +28 комфорт 1012.5 1010.7
10 13.06 ЮЗ 8 50 км 4/4 1440 м
[Cu med, cong]
+21.2 +10.1 49 +23 +24 комфорт 1012.6 1010.8
11 13.06 ЮЗ 7 50 км 5/5 1500 м
[Cu med, cong]
+20.2 +9.4 50 +21 +23 комфорт 1012.6 1010.8
12 13.06 ЮЗ 8 50 км 5/4 1500 м
[Cu med, cong Ac cuf]
+22.2 +9.5 44 +24 +25 комфорт 1012.4 1010.7
13 13.06 ЮЗ 7 50 км 5/5 1500 м
[Cu med, cong Ac cuf]
+21.7 +8.7 43 +23 +25 комфорт 1012.4 1010.7
14 13.06 ЮЗ 7 50 км 5/5 1500 м
[Cu med, cong Ac trans Ci fib]
+22.4 +8.5 41 +24 +25 комфорт 1012.5 1010.8
15 13.06 Ю 6 50 км 5/5 1500 м
[Cu med, cong]
+22.4 +8.8 42 +24 +26 комфорт 1012.4 1010.7
16 13.06 ЮЗ 3 50 км в посл. час ливневой дождь 6/6 1500 м
[Cu Sc]
+20.3 +10.4 53 +22 +24 комфорт 1012.6 1010.8
17 13.06 ЮЗ 3 50 км 5/5 1500 м
[Cb calv]
+21.0 +10.8 52 +23 +25 комфорт 1012.6 1010.8
18 13.06 ЮЗ 3 50 км {ливн. осадки} 6/6 1500 м
[Cb cap Ci fib]
+20.9 +9.0 46 +23 +23 комфорт 1012.8 1011.0 +15.9 +23.6 0.0
19 13.06 ЮЗ 2 50 км 5/4 1500 м
[Cu Sc Ac trans Ci fib]
+19.3 +10.6 57 +21 +21 комфорт 1013.1 1011.3
20 13.06 ЮЗ 1 50 км осадки на расстоянии 4/3 1200 м
[Cu med, cong Ac As Ci fib]
+17.4 +11.3 67 +18 +18 тепло 1013.6 1011.8
21 13.06 Ю 2 50 км 4/1 1200 м
[Cb cap Ac As Ci fib]
+16.5 +11.1 70 +17 +17 тепло 1014.0 1012.2
22 13.06 ЮЗ 2 60 км 3/1 1500 м
[Sc Ac trans]
+16.0 +10.5 70 +16 +16 тепло 1014.6 1012.8
23 13.06 В 1 60 км 3/0
[Ac trans]
+14.2 +10.8 80 +15 +15 тепло 1015.0 1013.2
00 14.06 В 1 50 км 3/0
[Ci fib]
+13.8 +11.6 87 +14 +14 тепло 1015.2 1013.4
01 14.06 ЮВ 2 50 км 4/0
[Ac trans Ci fib]
+14.1 +11.5 84 +14 +14 тепло 1015.6 1013.8
02 14.06 ЮВ 2 50 км 5/0
[Ac As Ci fib]
+13.4 +11.5 88 +13 +13 тепло 1015.7 1013.9
03 14.06 ЮВ 2 50 км 6/0
[Ac As Ci fib]
+14.2 +10.9 81 +14 +14 тепло 1015.9 1014.1
04 14.06 ЮВ 2 50 км 4/0
[Ac As Ci fib]
+14.1 +10.8 81 +14 +14 тепло 1016.2 1014.4
05 14.06 Ю 3 50 км 3/0
[Ac trans]
+15.6 +10.9 74 +15 +16 тепло 1016.5 1014.7
06 14.06 ЮВ 3 50 км 1/0
[Ac trans]
+17.5 +10.5 63 +18 +21 тепло 1016.8 1015.0 +12.7 +21.0
07 14.06 ЮВ 3 50 км 1/0
[Ac cast]
+19.5 +10.0 54 +21 +26 комфорт 1017.0 1015.2
08 14.06 ЮВ 5 50 км 1/0
[Ac trans]
+21.4 +9.2 46 +23 +28 комфорт 1016.9 1015.1
09 14.06 ЮВ 8 50 км 1/0
[Ac cast]
+23.3 +10.6 45 +25 +28 комфорт 1016.5 1014.8
10 14.06 ЮВ 8 50 км 4/0
[Ac cast]
+24.3 +9.7 40 +25 +27 комфорт 1016.1 1014.4
11 14.06 ЮВ 7 50 км 4/0
[Ac cast Ci sp]
+25.3 +10.7 40 +26 +30 жарко 1015.6 1013.9
12 14.06 Ю 7 50 км 8/3 1500 м
[Cu med, cong Ac As Ci sp]
+26.2 +12.4 42 +28 +30 жарко 1015.3 1013.6
13 14.06 Ю 7 50 км осадки на расстоянии 9/5 1500 м
[Cb calv Ac As]
+25.9 +12.9 45 +28 +29 жарко 1015.1 1013.4
14 14.06 Ю 6 45 км в посл. час ливневой дождь 8/3 1440 м
[Cb calv Ac As Ci ing]
+25.5 +12.9 46 +27 +30 жарко 1014.9 1013.2
15 14.06 З 8 8000 м гроза, ливневой дождь 10/9 400 м
[Cb calv]
+20.9 +15.4 71 +24 +24 комфорт 1016.3 1014.5 1
16 14.06 В 2 40 км в посл. час гроза {ливн. осадки} 8/4 1500 м
[Cb calv Ac cuf Ci ing]
+22.3 +16.2 68 +26 +29 жарко 1015.4 1013.7
17 14.06 СВ 2 45 км 8/1 1500 м
[Cu med, cong Ac cuf Ci sp]
+22.8 +16.0 65 +27 +29 душно 1014.8 1013.1
18 14.06 С 2 45 км {гроза, ливн. осадки} 8/1 1500 м
[Cu med, cong Ac cuf Ci sp]
+22.7 +15.8 65 +27 +27 душно 1014.6 1012.9 +16.2 +27.1 11
19 14.06 СВ 2 45 км 8/5 1500 м
[Cu Sc Ac trans Ci sp]
+22.7 +15.6 64 +27 +27 душно 1014.5 1012.8
20 14.06 С 1 45 км 6/3 1500 м
[Cu Sc Ac trans Ci sp]
+20.6 +16.4 77 +25 +25 комфорт 1014.8 1013.0
21 14.06 С 1 45 км зарница 5/3 1500 м
[Cu Sc Ac trans Ci fib]
+18.8 +15.9 83 +21 +21 комфорт 1014.8 1013.0
22 14.06 СВ 3 45 км 6/0
[Ac trans Ci sp]
+18.4 +16.0 86 +19 +19 тепло 1014.4 1012.6
23 14.06 СВ 2 40 км 9/0
[Ac trans Ci sp]
+18.0 +14.8 82 +19 +19 тепло 1013.9 1012.1
00 15.06 СВ 1 40 км 10/0
[Ac As]
+17.0 +14.5 85 +18 +18 тепло 1013.8 1012.0
01 15.06 В 3 40 км 10/1 1080 м
[Sc Ac As]
+17.5 +14.6 83 +18 +18 тепло 1012.6 1010.8
02 15.06 В 2 40 км 10/1 1080 м
[Sc Ac As]
+17.4 +14.2 81 +18 +18 тепло 1011.8 1010.0
03 15.06 СВ 1 45 км 9/0
[Ac trans]
+17.1 +14.3 84 +18 +18 тепло 1011.0 1009.2
04 15.06 З 4 20 км слаб. ливневой дождь 9/4 1200 м
[Cb cap Ac trans]
+17.6 +14.4 82 +17 +17 тепло 1011.7 1009.9
05 15.06 СВ 3 10 км слаб. ливневой дождь 10/6 750 м
[Cb cap Ac As]
+16.7 +15.4 92 +16 +17 тепло 1011.0 1009.2
06 15.06 В 4 10 км гроза, ливневой дождь 10/9 1500 м
[Cb cap]
+16.8 +15.7 93 +16 +16 тепло 1010.0 1008.2 +16.6 +23.2 3
07 15.06 В 5 25 км гроза, ливневой дождь 10/5 600 м
[Cb cap Ac cuf]
+18.6 +15.8 84 +19 +20 тепло 1009.3 1007.5
08 15.06 В 7 15 км гроза, ливневой дождь 10/9 450 м
[Cb cap Ac As]
+17.9 +15.7 87 +17 +17 тепло 1007.9 1006.1
09 15.06 В 1 25 км в посл. час гроза {ливн. осадки} 10/9 300 м
[Cu Sc]
+18.6 +16.5 88 +21 +21 комфорт 1008.4 1006.6 3
10 15.06 В 6 30 км 10/10 360 м
[Cu Sc]
+19.2 +16.5 84 +20 +20 тепло 1008.4 1006.6
11 15.06 В 3 30 км 10/9 400 м
[Cu Sc]
+19.0 +16.1 83 +21 +21 комфорт 1009.0 1007.2
12 15.06 ЮВ 2 25 км {гроза, ливн. осадки} 9/9 360 м
[Cu Sc]
+19.4 +16.5 83 +22 +23 комфорт 1009.5 1007.7
13 15.06 В 2 22 км в посл. час ливневой дождь 9/9 450 м
[Cb cap]
+20.1 +17.3 84 +24 +25 комфорт 1009.8 1008.1
14 15.06 ЮЗ 5 12 км в посл. час дождь {морось} 9/9 360 м
[Cu Sc]
+20.4 +18.2 87 +24 +24 комфорт 1010.4 1008.7
15 15.06 З 6 22 км в посл. час дождь {ливн. осадки} 9/9 420 м
[Cu Sc]
+20.9 +16.9 78 +24 +25 комфорт 1010.8 1009.1 0.0
16 15.06 З 6 35 км 3/3 660 м
[Cu Sc Ci fib]
+21.8 +15.2 66 +25 +27 комфорт 1011.0 1009.3
17 15.06 З 3 35 км 9/9 800 м
[Cu Sc]
+20.8 +15.0 69 +24 +24 комфорт 1012.3 1010.5
18 15.06 З 6 30 км в посл. час ливневой дождь 9/9 300 м
[Cb cap]
+19.5 +15.2 76 +21 +21 комфорт 1012.7 1010.9 +16.6 +22.3 3
19 15.06 З 7 40 км 9/8 600 м
[Cu Sc Ci fib]
+18.0 +13.4 74 +17 +17 тепло 1013.4 1011.6
20 15.06 З 6 40 км 9/9 450 м
[Sc]
+16.0 +12.4 79 +15 +15 тепло 1014.2 1012.4
21 15.06 З 6 40 км 9/9 360 м
[Sc]
+15.5 +12.4 82 +14 +14 по сезону 1015.3 1013.5
22 15.06 СЗ 5 40 км 9/9 480 м
[Sc]
+15.4 +11.9 80 +14 +14 тепло 1016.3 1014.5
23 15.06 З 5 40 км 9/9 450 м
[Sc]
+15.3 +11.9 80 +14 +14 тепло 1016.6 1014.8
00 16.06 СЗ 3 40 км 6/6 300 м
[Sc]
+14.5 +11.5 82 +14 +14 тепло 1017.0 1015.2
01 16.06 ЮЗ 2 30 км 3/3 540 м
[Sc]
+12.4 +11.1 92 +11 +11 по сезону 1017.5 1015.7
02 16.06 ЮЗ 3 30 км 1/1 540 м
[Sc]
+11.9 +10.8 93 +10 +10 по сезону 1017.3 1015.5
03 16.06 ЮЗ 2 15 км туман на расстоянии 4/0
[Ci fib]
+11.3 +10.5 95 +10 +10 по сезону 1017.5 1015.7
04 16.06 ЮЗ 2 20 км 5/0
[Ac trans Ci sp]
+12.4 +11.4 94 +11 +12 по сезону 1017.9 1016.1
05 16.06 З 2 30 км 8/0
[Ac trans Ci sp]
+14.1 +11.9 87 +14 +15 тепло 1017.9 1016.1
06 16.06 З 2 40 км 9/0
[Ac trans Ci sp]
+15.9 +11.6 76 +16 +19 тепло 1018.3 1016.5 +10.9 +19.5
07 16.06 З 2 40 км 8/0
[Ci sp]
+17.6 +10.9 65 +18 +24 тепло 1018.8 1017.0
08 16.06 ЮЗ 3 40 км 8/0
[Ci sp]
+18.2 +10.1 59 +19 +26 тепло 1019.4 1017.6
09 16.06 ЮЗ 3 40 км 6/1 1000 м
[Cu hum Ci sp]
+19.3 +10.5 57 +21 +29 комфорт 1019.5 1017.7
10 16.06 ЮЗ 2 50 км 9/1 1320 м
[Cu hum Ac trans Ci sp]
+20.2 +9.2 49 +22 +30 комфорт 1019.7 1017.9
11 16.06 ЮЗ 2 50 км 9/1 1200 м
[Cu hum Ac trans Ci sp]
+20.5 +9.4 49 +23 +31 комфорт 1019.7 1017.9
12 16.06 З 2 45 км 9/3 1320 м
[Cu med, cong Ac trans Ci sp]
+21.1 +11.0 52 +23 +29 комфорт 1020.0 1018.2
13 16.06 ЮЗ 4 45 км 9/8 1380 м
[Cu Sc Ac trans]
+20.6 +9.9 50 +22 +24 комфорт 1020.0 1018.2
14 16.06 ЮЗ 3 50 км 9/5 1410 м
[Cu Sc Ac As]
+20.9 +11.6 55 +23 +26 комфорт 1020.0 1018.2
15 16.06 Ю 2 50 км 9/1 1410 м
[Cu Sc Ac As]
+22.0 +11.2 50 +24 +27 комфорт 1019.8 1018.0
16 16.06 Ю 2 50 км 8/3 1410 м
[Cu med, cong Ac As Ci fib]
+21.5 +11.9 54 +24 +26 комфорт 1019.6 1017.8
17 16.06 З 1 45 км 5/3 1410 м
[Cu Sc Ac trans Ci fib]
+22.4 +11.2 49 +25 +27 комфорт 1019.5 1017.7
18 16.06 Ю 4 50 км 4/4 1000 м
[Cb cap]
+21.2 +12.1 56 +23 +24 комфорт 1019.6 1017.8 +15.8 +23.3
19 16.06 С 4 40 км в посл. час ливневой дождь 8/5 1050 м
[Cb cap Ac trans]
+16.9 +14.5 86 +16 +16 тепло 1020.1 1018.3
20 16.06 С 2 25 км 6/4 1050 м
[Cb cap Ac trans]
+16.4 +15.0 91 +16 +16 тепло 1020.5 1018.7
21 16.06 СЗ 1 20 км {ливн. осадки} 9/3 1500 м
[Sc Ac trans]
+16.1 +14.8 92 +17 +17 тепло 1021.0 1019.2 0.0
22 16.06 З 1 15 км местами туман поземный 8/0
[Ac trans]
+15.6 +14.7 94 +16 +16 тепло 1021.4 1019.6
23 16.06 СЗ 1 10 км туман на расстоянии 1/0
[Ac trans]
+14.0 +13.5 97 +14 +14 тепло 1021.5 1019.7
00 17.06 С 1 600 м туман {ливн. осадки} ясно +13.3 +12.9 97 +13 +13 по сезону 1021.6 1019.8 0.0
01 17.06 штиль 0-1
{2}
500 м туман ясно +12.8 +12.5 98 +12 +12 тепло 1021.9 1020.1
02 17.06 штиль 0 300 м туман ясно +11.5 +11.1 97 +11 +11 по сезону 1022.0 1020.2
03 17.06 штиль 0 300 м туман 1/0
[Ac trans]
+12.0 +11.7 98 +11 +11 по сезону 1021.9 1020.1
04 17.06 штиль 0
{1}
400 м туман ясно +11.7 +11.7 100 +11 +11 по сезону 1022.0 1020.2
05 17.06 Ю 1-2
{2}
11 км в посл. час туман ясно +14.7 +13.3 91 +15 +17 тепло 1022.1 1020.3
06 17.06 ЮВ 3 13 км {туман} ясно +17.8 +14.9 83 +18 +21 тепло 1022.2 1020.4 +10.9 +21.2 0.0
07 17.06 Ю 3-5
{5}
25 км ясно +19.8 +13.1 65 +22 +27 комфорт 1022.4 1020.6
08 17.06 Ю 3 30 км 1/1 1050 м
[Cu hum]
+21.3 +12.7 58 +24 +31 комфорт 1022.3 1020.5
09 17.06 ЮЗ 2 35 км 1/1 1320 м
[Cu hum]
+22.3 +12.7 55 +25 +37 комфорт 1022.2 1020.4
10 17.06 З 2 35 км 3/3 1440 м
[Cu hum]
+22.1 +8.9 43 +23 +34 комфорт 1022.0 1020.2
11 17.06 ЮЗ 3 35 км 3/3 1440 м
[Cu hum]
+22.4 +11.3 49 +25 +34 комфорт 1021.6 1019.8
12 17.06 СЗ 1 45 км 4/4 1500 м
[Cu med, cong Ci fib]
+23.8 +11.4 46 +25 +37 комфорт 1021.3 1019.5
13 17.06 Ю 2 45 км 4/4 1500 м
[Cu Sc Ci fib]
+23.5 +11.1 46 +25 +34 комфорт 1021.0 1019.2
14 17.06 СВ 2-3
{5}
50 км 4/4 1500 м
[Cu Sc Ci fib]
+25.0 +12.4 45 +27 +34 жарко 1020.6 1018.9
15 17.06 Ю 4 50 км 4/4 1500 м
[Cu Sc Ci fib]
+25.1 +11.6 43 +27 +30 жарко 1020.1 1018.4
17 17.06 ЮВ 4-7
{7}
55 км 3/3 1500 м
[Cu Sc Ci fib]
+24.9 +11.3 43 +26 +28 жарко 1019.3 1017.6
18 17.06 ЮВ 4 55 км 1/1 1500 м
[Cu med, cong Ac trans Ci fib]
+24.4 +11.0 43 +26 +26 жарко 1019.0 1017.3 +17.8 +25.8
19 17.06 В 4-5
{6}
50 км 1/1 1500 м
[Cu hum]
+23.5 +11.6 47 +25 +25 комфорт 1018.7 1017.0
20 17.06 В 2-4
{5}
50 км 1/1 1500 м
[Cu hum Ci fib]
+22.3 +12.1 52 +25 +25 комфорт 1018.8 1017.0

 

Местоположение метеостанции Гамбург (Германия): широта 53.63 долгота 10.00 высота над уровнем моря 16 м.

В архиве по умолчанию представлена погода в Гамбурге за последнюю неделю. Архивные данные за месяц целиком и за предыдущие месяцы, начиная с января 2011 года, Вы можете получить, выбрав интересующий диапазон дат из раскрывающегося списка и нажав кнопку "Ввод!".


*Определитесь, кто Вы:
робот инопланетянин человек

Внимание! Время в таблицах - всемирное. Для получения местного времени необходимо прибавить поправку, которая равна 1 ч.

Смотрите также архив погоды в соседних городах и на ближайших метеорологических станциях:

Погода в Квикборне (Германия) (14 км)
Погода в Итцехоэ (Германия) (48 км)
Погода в Любек-Бланкензее (Германия) (51 км)
Погода в Бойценбурге (Германия) (52 км)
Погода в Бремерфёрде (Германия) (57 км)
Погода в Дёрнике (Германия) (64 км)
Погода в Солтау (Германия) (71 км)
Погода в Пельцерхакене (Германия) (76 км)
Погода в Фасберге (Германия) (80 км)
Погода в Эльперсбюттеле (Германия) (81 км)

Пояснения к столбцам:

Ветер - указаны скорость ветра в м/с - средняя за 10 мин, порывы в срок и между сроками (в фигурных скобках) и направление, откуда дует ветер: С - северный, СВ - северо-восточный, В - восточный, ЮВ - юго-восточный, Ю - южный, ЮЗ - юго-западный, З - западный, СЗ - северо-западный.
Видимость - горизонтальная дальность видимости в метрах или километрах. При видимости от 1 до 10 км при отсутствии осадков обычно наблюдается дымка, при ухудшении видимости до 1 км и менее - туман. В сухую погоду видимость может ухудшаться дымом, пылью или мглою.
Явления - указаны атмосферные явления, наблюдавшиеся в срок или в последний час перед сроком; фигурными скобками обозначены явления, наблюдавшиеся между сроками (за 1-3 часа до срока); квадратными скобками обозначены град или гололедные отложения с указанием их диаметра в мм.
Облачность - указаны через наклонную черту общая и нижняя облачность в баллах и высота нижней границы облаков в метрах; квадратными скобками обозначены формы облаков: Ci - перистые, Cs - перисто-слоистые, Cc - перисто-кучевые, Ac - высококучевые, As - высокослоистые, Sc - слоисто-кучевые, Ns - слоисто-дождевые, Cu - кучевые, Cb - кучево-дождевые. Подробнее классификацию облаков см. в Атласе облаков (PDF).
T - Температура воздуха - температура, измеренная на высоте 2 м над землей.
Td - Температура точки росы - температура, при понижении до которой содержащийся в воздухе водяной пар достигнет насыщения.
f - Относительная влажность воздуха - влажноcть воздуха, измеренная на высоте 2 м над землей.
Te - Эффективная температура - температура, которую ощущает одетый по сезону человек в тени. Характеристика душности погоды. При расчете учитывается влияние влажности воздуха и скорости ветра на теплоощущения человека.
Tes - Эффективная температура на солнце - температура, которую ощущает человек, с поправкой на солнечный нагрев. Характеристика знойности погоды. Зависит от высоты солнца над горизонтом, облачности и скорости ветра. Ночью, в пасмурную погоду, а также при ветре 12 м/с и более поправка равна нулю.
P - Атмосферное давление - приведенное к уровню моря атмосферное давление.
Po - Атмосферное давление - измеренное на уровне метеостанции атмосферное давление.
Tmin - Минимальная температура - минимум температуры воздуха на высоте 2 м над землей.
Tmax - Максимальная температура - максимум температуры воздуха на высоте 2 м над землей.
R - Количество осадков - Количество выпавших осадков за период времени, мм. При наведении курсора мыши на число - период времени, за который выпало указанное количество осадков.
R24 - Количество осадков - Количество выпавших осадков за 24 часа, мм.
S - Снежный покров - Высота снежного покрова, см. При наведении курсора мыши на число - состояние снежного покрова и степень покрытия местности в баллах.